GFSSE_2pvu_pres_000.txt.gz
Presure
156 152 158 145 168 164 141 165 168 142 186 147 144 162 142 141 114 167 150 162 149 142 199 230 213 190 156 248 245 215 195 267 200 240 161 179 126 181 126 163 119 144 189
125 128 178 159 144 154 173 162 142 169 193 190 195 229 220 200 204 252 265 268 240 246 246 249 241 247 232 242 233 171 226 227 225 144 223 213 236 235 219 129 222 96 136
152 139 178 162 151 166 168 134 174 170 191 219 225 234 232 222 242 261 272 246 258 267 247 264 257 263 260 244 249 237 242 229 234 244 237 234 227 190 163 228 245 208 189
160 159 143 162 181 170 164 182 218 231 242 264 247 244 265 263 191 263 257 257 257 257 258 274 251 265 231 254 243 255 234 176 234 231 235 223 235 233 160 225 241 148 145
166 171 152 184 172 171 184 240 271 266 262 269 243 271 276 256 262 245 255 258 251 245 248 254 253 240 242 253 239 246 237 218 228 216 220 220 226 214 218 208 237 224 179
173 182 184 179 217 242 290 280 270 269 283 266 270 268 266 244 245 283 260 269 253 258 267 263 252 258 246 227 234 225 153 216 217 220 212 221 216 219 206 189 204 190 172
181 189 336 358 325 311 243 289 281 282 278 280 266 284 270 266 283 265 272 275 274 259 258 245 252 238 248 248 235 232 218 216 219 211 206 213 217 198 211 209 212 219 174
235 344 251 260 250 275 286 296 288 270 254 276 268 264 260 258 253 251 255 259 260 266 265 261 231 253 250 236 238 228 219 214 207 207 200 206 198 200 198 195 191 207 191
262 265 224 263 263 265 257 267 284 285 247 288 280 248 248 260 252 247 244 244 244 251 256 259 255 252 240 232 239 223 219 216 204 198 157 194 193 189 203 188 192 188 180
243 273 277 269 258 215 255 258 246 253 245 243 247 255 261 264 266 260 249 240 240 236 239 250 250 242 233 235 222 226 204 209 208 197 201 202 195 194 185 185 194 190 179
213 255 254 234 246 245 235 233 226 189 195 235 239 202 217 226 237 239 238 242 252 249 235 233 239 246 233 240 215 217 214 203 207 201 192 194 200 198 193 196 192 186 181
229 222 211 235 203 204 224 203 213 206 229 192 225 235 232 235 234 230 195 213 231 241 249 243 229 232 235 241 223 227 218 214 206 199 203 179 199 197 196 192 187 189 182
245 230 231 221 232 225 224 208 205 203 213 207 207 201 213 210 121 203 204 213 217 214 205 228 244 248 233 229 213 232 205 215 206 201 190 203 184 194 188 186 196 177 192
216 214 221 202 206 222 200 196 211 194 195 206 195 201 199 195 192 195 201 214 206 196 202 210 217 221 237 244 248 227 230 207 205 205 196 194 200 203 137 180 182 185 184
200 209 208 215 192 190 194 190 197 185 163 167 171 195 201 195 191 187 185 187 191 194 198 203 204 204 212 221 228 228 239 245 235 229 229 194 193 190 206 197 183 194 178
196 190 200 183 193 194 171 194 184 191 190 171 175 178 186 186 180 195 200 202 201 194 190 193 195 198 206 205 203 211 218 221 228 236 247 232 187 195 192 209 178 191 185
202 183 184 179 178 176 180 179 183 182 182 173 178 180 182 183 191 193 188 189 184 189 194 197 193 193 199 196 198 200 205 203 216 222 222 221 245 190 191 188 200 207 173
181 190 182 179 174 173 179 180 180 179 175 174 169 168 181 187 182 179 173 181 181 183 180 183 183 184 194 194 201 198 198 203 206 201 208 215 223 229 211 190 183 191 188
180 187 188 177 181 182 164 174 180 181 181 180 180 176 182 160 165 180 182 185 176 184 183 177 175 182 182 190 195 201 203 201 201 201 213 207 208 218 218 234 192 183 190
173 127 169 182 165 173 170 165 174 174 173 188 177 182 178 181 155 170 185 191 192 189 187 178 178 193 186 181 181 186 196 193 201 203 204 205 203 206 215 221 222 238 193
180 173 179 174 172 173 170 168 159 163 161 173 177 184 188 159 172 184 192 192 190 193 187 192 195 196 191 193 196 197 181 190 203 211 199 200 206 217 204 205 215 223 227
183 170 161 175 174 168 165 158 146 146 184 178 186 159 193 194 152 185 177 186 192 188 197 190 193 194 191 195 198 198 203 207 193 194 204 203 195 207 216 218 208 208 230
152 179 169 185 187 184 168 144 151 180 183 150 144 168 135 145 183 148 188 160 163 191 193 190 202 199 212 211 210 204 206 204 208 207 201 201 203 205 204 210 218 216 212
102 126 178 179 173 160 179 174 135 182 184 136 176 173 138 181 179 186 188 185 152 185 162 217 229 233 205 240 215 230 230 233 230 223 218 212 199 203 207 210 211 218 219
178 131 171 172 171 169 176 155 170 169 113 124 151 185 190 190 190 174 198 221 232 229 224 246 243 242 240 266 259 263 274 261 250 251 250 253 256 251 250 258 241 234 229
172 170 173 162 165 170 172 127 172 167 143 183 190 192 198 211 222 224 219 224 251 245 243 235 277 287 274 283 263 294 296 294 287 286 286 275 250 283 285 274 253 248 252

GFSSE_2pvu_pres_003.txt.gz
Presure
162 167 170 158 162 139 125 159 133 136 137 142 169 131 132 182 202 235 120 219 175 232 241 210 196 226 233 206 220 155 162 176 153 140 189 145 96 190 203 146 204 167 164
152 129 129 131 147 158 168 165 185 166 176 188 198 216 207 219 155 119 233 256 255 293 279 263 269 264 259 279 88 259 241 251 112 232 242 161 164 220 151 162 231 211 172
167 160 162 167 147 155 167 159 182 178 191 185 223 241 248 287 267 254 260 280 256 242 283 276 279 264 266 254 258 251 252 251 244 219 225 256 231 233 203 236 227 167 133
160 170 168 169 149 175 172 193 219 205 232 240 265 275 267 268 268 273 265 264 269 257 261 255 257 263 252 257 251 252 246 246 235 238 234 217 239 228 233 199 159 227 213
166 151 170 164 173 182 194 212 228 312 289 315 259 286 261 282 275 285 269 276 284 264 278 262 260 257 245 246 242 241 248 223 240 213 219 227 230 212 246 233 220 183 104
169 140 182 161 192 211 244 277 272 212 254 293 263 293 283 271 275 268 262 259 295 270 281 283 286 286 251 246 242 244 229 231 228 221 231 224 228 201 187 233 219 232 224
152 179 183 188 206 259 264 212 296 305 294 289 277 268 274 270 265 258 261 252 255 253 262 270 264 278 265 252 250 239 171 227 222 221 210 211 207 201 209 207 207 223 210
187 171 190 206 234 257 272 304 295 292 282 263 276 288 293 275 262 254 253 249 250 249 243 251 257 272 257 255 268 247 232 226 208 215 140 127 150 209 196 149 152 197 201
185 237 209 248 219 261 230 251 248 228 228 224 220 235 229 222 252 266 259 248 247 242 241 237 242 250 261 258 232 227 242 227 226 213 214 213 204 208 177 203 212 198 209
241 253 235 237 224 259 225 227 219 229 239 237 247 244 196 230 230 228 228 243 252 259 253 237 240 235 241 234 251 219 232 222 209 216 204 214 212 206 192 201 196 195 201
190 235 232 232 233 233 229 230 211 216 212 223 215 214 200 206 207 203 217 214 223 220 225 253 250 243 238 238 237 250 218 224 226 220 205 200 202 207 202 124 194 194 189
230 223 233 230 234 218 212 205 200 214 207 201 196 197 195 196 212 201 203 212 206 206 208 213 215 233 259 248 237 231 230 230 215 217 184 201 193 198 198 195 192 193 199
235 227 188 214 183 198 204 191 193 196 195 192 193 195 188 192 191 196 197 199 212 208 206 201 207 207 225 226 237 239 233 233 211 216 221 215 197 180 195 194 199 201 193
217 213 209 179 135 174 203 194 196 184 174 192 180 187 185 183 183 188 191 199 190 185 200 203 205 204 206 207 214 228 236 234 227 234 235 215 214 197 193 193 196 199 197
216 202 195 201 185 186 190 186 185 175 186 187 188 181 180 179 175 182 189 186 189 187 187 189 191 187 193 194 204 210 214 220 241 248 246 239 217 190 195 191 183 193 88
195 194 195 192 187 183 182 172 186 189 185 177 178 175 168 180 175 173 180 171 176 181 179 183 181 184 184 186 166 185 193 199 204 216 223 242 258 218 209 201 192 201 183
193 192 199 187 191 177 181 180 181 180 166 156 176 176 172 178 174 180 183 182 186 172 172 182 191 184 182 180 183 182 189 163 184 201 206 209 219 242 259 223 199 191 193
186 180 187 178 177 157 139 177 181 164 154 165 161 169 167 166 185 183 189 177 178 190 162 189 190 191 173 188 187 181 182 185 182 181 187 200 202 209 214 235 256 198 193
176 170 171 170 167 155 167 177 173 176 174 172 178 158 175 181 171 188 173 172 165 194 181 182 182 181 185 177 173 172 186 187 185 182 184 182 186 197 197 203 214 236 256
185 185 183 191 174 180 174 172 166 180 175 180 168 150 151 183 184 176 181 176 183 185 175 183 177 178 182 184 190 189 180 180 194 188 189 180 184 188 194 192 201 207 221
172 166 182 181 183 143 187 182 152 175 166 175 180 176 161 180 171 143 138 172 188 138 143 171 190 196 192 193 136 209 208 209 195 193 198 193 193 174 193 195 200 195 204
167 178 174 177 184 175 128 173 164 177 173 176 176 176 184 164 149 169 130 167 186 153 162 188 185 212 222 219 182 226 212 231 228 223 228 209 215 202 193 199 196 203 198
116 166 97 195 178 189 182 181 173 171 169 179 168 164 168 126 156 135 162 182 197 204 215 217 227 200 222 216 232 221 231 206 247 213 239 237 232 229 214 207 204 204 201
156 96 100 189 165 183 188 187 168 170 179 168 178 179 167 163 168 195 203 208 217 222 118 218 215 214 228 229 253 254 246 262 256 285 242 259 240 239 239 226 214 208 210
152 96 179 181 182 178 158 166 176 138 131 130 181 146 194 201 206 214 216 224 207 231 240 251 251 230 228 261 264 254 299 300 282 274 273 281 286 291 275 250 230 226 224
181 175 174 164 150 123 127 183 182 158 188 192 202 207 212 204 215 222 227 215 187 230 185 250 244 262 264 264 294 288 291 283 288 281 267 300 300 285 295 277 306 276 252

GFSSE_2pvu_pres_006.txt.gz
Presure
131 157 144 158 154 147 129 145 150 128 141 128 164 188 168 183 206 181 239 252 252 256 260 236 261 257 265 197 169 269 244 197 238 217 141 149 157 180 215 195 152 186 185
150 150 128 124 156 159 170 139 167 170 164 161 178 133 193 209 253 242 270 269 273 273 259 280 276 278 261 298 286 271 261 259 231 210 245 233 163 241 100 146 245 185 173
144 157 158 164 139 159 166 164 154 157 174 178 183 215 312 304 291 286 309 291 284 240 254 280 266 285 264 267 288 265 275 257 269 258 253 230 237 229 234 184 152 168 148
151 122 136 132 160 154 179 170 167 185 185 190 214 241 229 214 216 252 289 277 274 284 279 278 283 267 260 266 266 253 262 247 248 242 245 241 224 203 223 227 226 226 190
132 127 127 162 154 148 165 190 189 184 185 224 222 241 310 273 214 289 285 285 280 274 265 265 274 274 286 289 265 257 256 254 246 240 246 243 229 231 221 234 226 220 223
160 156 152 167 161 172 196 185 191 234 228 266 299 205 296 302 281 276 274 267 264 263 260 257 258 265 272 270 282 279 251 243 244 238 240 236 232 228 235 206 223 227 211
159 140 170 176 178 177 178 241 250 197 203 245 231 254 265 254 242 241 235 247 267 261 258 255 247 251 260 271 275 250 253 240 236 229 235 226 219 226 223 215 206 206 195
139 160 168 169 184 220 246 255 229 237 255 256 226 243 241 235 237 240 237 244 238 248 265 254 245 244 243 267 254 264 250 246 240 236 228 220 223 205 221 218 212 211 202
164 176 173 183 238 253 239 249 242 228 226 224 223 223 215 217 212 188 206 187 204 223 230 242 258 247 243 242 247 261 254 254 253 226 217 223 219 224 210 207 204 198 176
177 179 188 177 206 252 241 235 234 228 238 135 221 217 214 211 207 211 212 207 207 217 217 217 220 234 239 241 239 245 236 230 237 233 225 232 221 206 209 205 222 193 199
189 185 191 235 238 227 221 217 215 208 142 212 205 208 205 201 194 195 191 192 197 202 203 215 224 219 217 236 242 232 243 254 232 225 239 218 204 212 201 194 204 197 187
174 234 218 227 230 225 215 205 194 189 206 202 193 185 201 195 190 183 185 187 195 194 196 196 203 204 205 216 217 232 244 233 254 230 241 217 207 146 216 210 202 203 196
221 219 232 225 207 208 198 193 196 202 185 184 180 194 188 186 189 180 184 180 188 188 191 194 189 192 199 188 203 204 216 233 245 231 226 216 206 208 207 225 210 201 195
214 213 220 195 195 206 181 194 194 192 185 190 193 185 184 183 186 180 181 184 179 188 187 189 189 185 191 190 193 182 199 204 205 230 243 246 248 208 202 207 209 208 204
215 211 204 194 184 184 185 192 191 172 188 181 186 175 178 154 177 170 170 171 183 184 191 184 184 187 187 195 193 194 195 194 184 196 203 230 250 210 214 201 165 209 193
205 196 190 195 187 183 191 182 174 173 176 153 180 168 172 171 169 159 169 181 182 187 189 181 184 161 184 183 190 189 188 190 189 197 186 191 200 222 252 253 196 202 203
197 195 195 187 174 181 180 182 180 174 175 174 175 180 187 186 182 187 161 164 185 182 184 185 177 186 190 189 185 181 196 185 183 173 173 195 195 192 197 256 253 206 195
193 192 186 182 177 186 183 190 186 184 184 176 188 181 180 171 180 182 168 156 170 181 167 185 188 171 185 188 176 191 184 177 182 185 183 181 168 193 195 199 201 249 215
192 189 188 172 185 163 144 178 176 182 185 182 174 182 180 176 177 173 182 161 181 166 189 181 144 183 174 166 177 180 203 188 201 201 185 186 186 185 173 193 193 193 228
193 182 176 195 194 108 147 176 174 199 184 145 184 183 183 170 174 176 183 182 166 145 152 143 139 152 168 182 211 171 211 181 183 203 194 206 182 187 198 185 197 194 191
194 200 192 192 98 123 199 194 191 187 181 181 184 175 173 177 171 183 190 182 136 123 194 199 193 202 163 214 165 216 224 212 227 227 173 230 225 168 209 199 202 202 194
190 164 190 193 146 106 171 175 177 183 178 166 165 176 186 170 186 154 171 167 199 203 205 187 210 211 208 208 213 220 211 219 222 216 211 210 220 219 223 218 191 203 203
194 194 193 187 95 164 180 177 179 148 183 156 173 183 160 194 182 175 203 208 206 206 205 202 207 213 211 216 217 194 219 228 222 234 229 256 248 236 207 236 226 225 209
181 147 182 182 188 187 168 169 180 181 179 188 177 194 194 159 206 207 207 205 204 206 208 222 211 204 203 212 212 222 226 222 221 229 272 249 262 242 265 281 178 191 237
170 167 182 171 168 162 164 178 107 139 188 198 197 139 204 204 212 210 197 213 197 202 188 218 235 235 249 234 222 259 250 243 233 251 278 273 261 274 278 297 261 264 266
174 181 177 175 175 181 137 117 132 195 166 205 206 209 206 195 199 208 207 225 234 194 206 232 246 259 258 269 272 271 269 265 265 271 280 279 274 280 289 286 312 319 259

GFSSE_2pvu_pres_012.txt.gz
Presure
159 124 103 116 108 144 139 134 145 109 139 146 120 125 136 131 134 140 140 150 206 181 295 310 228 235 273 290 265 289 242 296 285 207 259 222 248 189 156 177 108 182 181
128 105 109 108 138 123 120 141 109 123 142 112 149 131 135 138 157 137 184 227 223 311 321 291 310 263 306 279 255 291 212 250 255 297 269 226 269 269 254 229 202 221 183
135 110 107 124 110 116 126 130 147 140 133 141 134 139 151 173 144 239 294 279 292 309 314 305 300 287 289 289 285 287 309 297 293 297 279 284 271 233 253 261 253 245 172
111 123 126 123 116 127 126 137 157 120 144 157 127 155 177 176 209 298 262 262 242 264 227 251 305 295 280 273 271 276 285 296 303 296 280 286 268 274 273 283 269 249 242
124 125 124 126 120 148 137 136 157 157 173 148 154 159 171 179 260 245 239 252 239 252 248 244 249 249 285 269 266 263 279 287 295 297 296 285 310 272 225 211 216 260 250
123 123 169 170 132 119 167 165 143 134 169 160 169 174 196 223 261 245 237 238 232 227 219 151 136 230 232 238 267 260 274 283 286 303 286 269 248 209 200 226 194 212 223
150 122 155 132 144 159 165 127 138 160 155 153 173 195 252 231 236 233 211 214 216 218 216 216 219 217 217 222 226 227 217 269 269 277 279 248 204 166 178 197 212 207 170
136 137 118 147 150 147 146 147 151 159 163 165 225 242 234 223 232 223 217 209 213 214 208 204 206 214 208 214 213 215 226 250 263 266 263 214 206 194 178 185 183 205 221
133 152 127 137 147 157 130 153 159 173 160 201 235 226 220 223 204 210 198 188 192 195 201 201 204 202 179 207 203 199 206 217 254 275 264 207 210 199 202 201 201 195 219
146 126 161 127 150 159 161 163 160 165 190 230 199 217 208 208 205 209 211 205 202 200 190 195 193 200 203 197 205 204 209 201 214 248 277 270 202 191 204 210 222 207 158
119 130 170 162 155 168 162 160 174 171 198 205 215 215 204 196 193 196 184 194 196 189 192 187 182 192 192 202 207 185 200 206 194 208 225 258 278 226 210 195 193 183 209
139 159 142 157 159 167 173 169 182 228 222 218 208 203 198 187 184 186 179 181 186 186 173 184 180 179 187 198 186 196 197 203 199 192 203 212 259 272 228 211 218 230 209
155 162 162 161 162 163 165 210 226 218 209 205 203 196 191 186 184 186 190 196 195 186 192 180 199 163 169 188 193 193 189 194 197 203 211 195 209 235 238 222 216 221 205
136 134 163 161 170 202 218 200 218 213 207 199 201 197 192 191 187 205 197 175 198 187 172 183 189 194 191 172 178 193 182 194 180 197 186 190 195 194 212 234 208 213 203
168 161 165 186 188 220 205 212 196 207 203 196 198 191 183 178 169 151 175 202 200 197 197 197 181 196 187 184 184 183 189 183 189 194 188 196 200 194 190 202 222 214 199
175 197 212 219 209 210 209 185 205 202 211 198 207 214 201 205 211 131 207 192 190 194 185 192 193 186 183 189 193 189 187 183 187 185 194 165 195 197 193 194 192 213 214
224 207 181 214 204 181 208 207 211 211 205 196 199 201 207 197 186 187 177 190 187 184 184 175 190 182 190 194 195 196 193 178 188 182 191 220 182 196 199 200 190 188 216
223 216 177 161 204 217 217 217 220 211 197 205 201 118 191 193 193 182 182 145 177 190 191 186 191 194 193 197 196 199 204 167 160 214 220 222 224 211 192 212 198 196 183
221 232 227 226 220 223 212 207 207 203 199 194 192 182 184 184 183 178 186 187 196 180 203 202 201 203 189 206 208 209 212 211 209 201 213 163 189 208 197 219 203 190 197
221 217 209 203 197 205 211 197 192 168 187 173 184 190 172 180 179 179 141 140 209 207 208 206 206 206 202 204 204 202 205 204 162 206 206 157 156 145 151 220 219 197 173
204 193 205 214 213 190 186 188 189 189 187 180 176 176 170 184 184 182 127 202 136 210 204 198 203 199 201 202 199 201 194 198 202 230 215 210 210 206 210 148 215 194 224
195 216 216 192 189 186 181 166 182 186 183 184 182 176 184 189 159 148 118 199 198 196 204 207 202 202 199 200 221 202 204 222 205 196 224 213 126 150 211 161 204 206 213
207 210 191 185 183 181 178 179 185 189 174 186 177 161 124 188 199 151 203 204 152 203 161 213 222 214 218 224 221 223 179 226 206 212 213 221 228 227 216 187 172 186 208
216 193 181 182 181 184 183 183 182 190 187 186 185 190 193 157 194 195 122 197 206 215 218 217 215 225 225 209 207 211 225 233 231 223 218 227 241 233 231 225 206 240 220
184 184 185 182 189 186 183 177 189 182 152 188 192 193 110 202 202 202 204 211 214 213 225 219 226 221 231 232 235 229 247 242 250 156 278 272 262 260 256 228 224 241 251
182 183 180 183 187 183 182 185 183 184 191 189 190 196 197 200 196 199 166 126 125 128 171 172 223 230 229 243 243 258 256 271 268 287 340 205 359 317 240 330 333 331 339

GFSSE_2pvu_pres_015.txt.gz
Presure
144 165 136 133 120 136 121 129 152 138 122 113 129 149 119 128 183 163 123 142 130 168 182 222 332 235 322 327 285 323 267 273 258 266 252 241 285 232 212 197 212 194 189
127 121 162 107 110 129 115 156 118 112 123 176 122 142 141 149 119 173 167 130 180 187 325 290 319 301 299 296 240 284 299 274 304 249 306 247 220 218 223 194 232 220 210
115 116 106 131 128 117 112 111 113 136 132 151 159 127 128 123 168 155 179 167 186 204 276 266 235 274 308 293 281 273 275 277 283 287 303 308 294 234 219 234 205 208 218
159 111 142 124 122 118 110 147 161 131 151 125 123 173 151 142 159 172 161 172 204 231 248 250 243 242 243 247 271 268 260 266 272 284 299 314 300 296 252 161 211 192 208
116 117 124 122 123 149 121 135 160 120 123 173 150 167 164 164 168 163 174 184 252 231 214 220 213 221 218 226 231 239 265 243 286 300 275 304 295 255 239 253 214 203 199
120 125 113 119 138 148 155 126 122 168 170 170 162 134 141 169 160 173 174 232 225 223 226 210 214 222 197 201 205 222 230 169 279 288 283 296 286 282 286 247 303 266 232
126 118 138 124 148 126 132 144 126 156 126 160 160 158 175 164 163 179 222 224 218 207 205 210 195 192 206 204 195 210 221 227 259 279 222 258 247 244 245 228 217 219 212
120 115 123 145 150 147 133 139 164 151 163 162 160 160 162 157 210 218 223 206 207 212 200 206 192 195 212 202 200 191 189 200 227 258 256 239 242 228 223 208 221 219 200
178 124 143 122 125 149 151 129 160 166 150 171 154 160 181 168 215 217 211 214 202 195 200 202 203 198 190 197 199 199 200 199 208 232 244 235 219 215 217 213 201 205 203
123 144 123 120 150 124 158 126 161 163 160 163 159 176 182 211 219 213 205 199 201 195 190 182 182 185 189 185 182 204 194 208 190 216 236 220 217 214 203 209 204 204 207
159 123 119 144 135 128 144 130 147 170 173 166 197 226 192 219 213 207 202 198 197 193 194 203 200 187 200 173 201 182 205 196 186 211 207 226 226 193 196 194 202 190 193
161 128 125 159 156 137 146 161 150 164 176 217 225 197 217 196 205 211 195 200 199 172 172 181 176 199 196 186 182 200 162 202 197 184 198 203 183 202 179 184 185 189 208
128 161 158 158 162 139 160 171 177 179 220 225 217 215 202 208 208 196 201 189 195 180 179 198 179 209 203 198 193 189 196 170 199 187 202 191 203 209 230 193 186 206 204
122 126 161 162 148 161 165 176 197 178 219 199 178 205 214 208 208 202 225 205 202 198 206 208 207 195 196 189 185 184 189 193 172 192 196 173 184 196 193 215 221 200 212
141 154 160 156 160 189 173 168 171 224 207 204 212 215 214 211 206 199 204 205 210 199 188 183 178 188 189 189 187 181 191 186 184 184 190 191 200 182 194 192 194 219 224
148 161 127 186 216 170 158 191 208 198 216 229 223 219 219 206 198 198 196 192 192 194 186 181 182 185 179 189 209 207 196 197 201 198 195 189 182 192 194 194 187 191 206
199 126 143 145 152 165 165 216 224 215 204 226 213 206 206 203 194 192 172 177 183 188 180 179 184 141 209 207 209 212 209 205 207 209 213 213 221 184 193 224 182 194 181
145 160 184 209 223 211 201 222 214 202 215 220 203 190 173 190 186 183 196 180 180 174 178 186 183 192 209 209 211 209 204 203 204 208 205 208 215 213 201 222 215 199 194
208 212 229 239 196 233 204 219 215 216 212 187 189 190 195 189 192 189 186 185 174 182 107 118 160 203 199 200 197 195 197 200 195 194 196 203 206 212 171 191 218 204 186
212 232 219 202 215 210 202 207 219 198 189 190 182 177 185 191 193 180 190 178 186 192 107 197 205 195 158 196 202 197 188 190 198 178 175 197 196 200 204 208 214 219 218
228 216 201 213 203 202 209 216 190 186 183 181 188 186 185 181 185 191 187 156 125 191 193 203 106 120 122 194 200 206 196 216 224 211 204 223 215 223 211 189 215 193 158
222 213 207 203 206 204 217 193 183 179 184 183 195 191 187 192 193 188 195 192 202 143 200 201 117 195 200 203 211 205 217 213 218 224 210 213 211 177 169 185 195 217 207
209 203 199 204 206 209 197 186 181 182 185 194 191 193 196 192 197 197 206 194 200 119 197 161 195 211 208 210 216 225 229 220 210 211 215 211 212 215 213 214 221 178 135
199 195 202 203 195 187 182 176 184 190 197 192 197 143 191 184 198 195 196 207 201 206 210 212 210 213 225 120 126 198 137 219 240 230 228 223 228 228 225 227 201 228 228
197 200 202 194 191 181 189 185 195 192 195 195 145 191 183 200 195 197 208 201 196 206 214 217 219 232 192 134 240 232 237 249 257 261 259 244 232 239 245 256 263 261 268
196 194 190 193 190 176 191 186 190 192 191 147 188 198 194 201 201 202 204 208 208 220 221 230 241 242 247 249 244 258 268 280 289 311 307 299 298 286 309 352 363 340 287

GFSSE_2pvu_pres_021.txt.gz
Presure
115 111 124 114 109 115 112 154 110 129 121 125 114 148 117 135 145 118 135 150 160 149 135 139 204 150 151 199 184 243 244 239 305 301 247 294 302 278 273 269 247 259 240
117 122 113 124 116 107 150 114 130 121 126 131 117 114 180 140 130 116 152 192 131 148 152 166 185 188 219 187 243 227 236 244 226 233 229 277 288 322 320 276 269 242 241
130 136 116 135 121 114 146 107 137 124 128 113 132 145 142 121 120 154 136 148 167 128 182 142 189 177 171 230 222 229 211 211 216 211 246 218 298 281 297 322 271 255 262
131 114 132 134 126 124 122 122 126 132 114 147 133 129 133 118 125 135 174 133 158 198 151 173 179 215 232 224 214 207 208 202 198 201 218 213 291 223 284 296 315 257 246
129 149 130 121 140 138 116 133 173 122 122 140 136 169 165 137 117 165 123 177 177 170 188 182 190 172 205 220 212 205 201 202 191 196 195 205 226 282 312 283 330 298 232
119 116 158 118 133 183 180 188 125 126 140 117 134 186 104 126 125 139 171 168 191 185 183 163 183 227 214 217 206 196 205 190 183 184 191 207 190 243 283 280 282 303 259
171 179 171 179 150 166 183 134 127 118 118 182 169 121 121 141 125 134 177 183 191 177 163 202 219 212 210 215 204 201 201 188 212 207 196 199 205 187 265 292 304 276 260
164 176 146 129 170 137 127 134 122 141 158 120 125 164 154 126 140 167 170 168 166 185 172 221 218 215 213 213 210 199 200 197 192 184 207 192 201 204 266 264 283 279 299
184 175 165 125 121 156 178 126 114 128 161 146 136 177 170 175 172 178 169 180 195 225 173 215 216 207 213 209 209 205 198 186 171 200 212 196 193 193 228 240 253 253 238
169 180 173 173 171 179 143 133 130 170 126 128 178 175 124 174 163 135 181 181 212 231 198 217 213 205 211 207 200 213 210 191 211 205 202 206 189 190 215 222 218 243 248
160 139 171 161 161 166 144 147 178 125 149 190 167 127 173 174 148 197 185 209 223 204 202 220 222 218 217 206 201 199 208 213 207 203 196 201 201 193 188 234 188 225 235
126 130 182 167 174 176 156 135 123 152 177 172 174 172 172 175 180 180 164 185 161 204 192 217 216 212 213 212 210 178 187 188 189 185 178 193 187 187 187 185 223 203 219
125 152 117 174 182 180 175 125 174 167 132 178 177 163 173 206 233 237 204 228 227 181 190 216 215 195 193 195 191 182 198 201 188 182 183 184 198 196 185 183 183 207 246
131 162 134 179 180 124 137 174 189 181 179 177 171 194 223 194 208 203 220 207 206 183 205 211 190 192 185 183 194 195 190 174 179 172 185 174 179 188 212 193 190 181 215
164 179 180 159 126 182 195 187 187 196 138 209 220 231 193 226 210 216 219 215 205 193 208 189 190 176 183 188 183 182 188 183 196 150 176 190 177 192 211 213 193 186 181
178 180 185 188 180 192 194 200 134 200 228 180 218 239 214 208 235 210 225 200 198 208 197 192 179 181 179 184 182 182 187 189 181 186 190 191 188 193 210 212 213 211 182
189 199 198 187 191 239 237 168 226 191 198 222 204 206 218 211 203 222 214 218 210 213 190 188 182 180 180 188 185 185 188 184 187 190 195 116 194 154 199 195 203 209 215
205 189 213 204 229 218 137 157 227 231 227 203 207 233 208 219 205 198 192 198 217 201 182 179 182 183 191 192 186 184 189 181 189 195 195 177 210 201 200 195 198 201 196
235 210 239 233 215 206 218 222 218 213 207 209 208 225 210 203 193 200 196 208 203 193 182 186 189 192 189 193 189 189 187 190 196 195 177 191 194 196 160 175 187 184 197
235 231 217 215 212 213 208 210 220 202 206 207 219 213 195 193 195 205 198 193 186 181 189 188 195 196 197 192 190 189 190 196 193 195 194 182 191 191 194 193 194 195 189
230 251 214 215 204 206 206 210 205 219 212 228 190 190 194 203 199 194 193 194 193 190 193 196 193 190 192 201 206 198 192 184 189 192 183 191 191 195 199 193 169 196 197
216 208 209 212 203 211 203 198 195 213 201 184 191 196 189 193 191 195 196 196 196 196 193 191 195 199 196 195 194 194 188 193 193 193 195 196 197 197 202 206 203 200 196
212 213 209 215 210 205 201 200 198 185 188 192 195 192 188 191 202 190 190 200 198 143 198 204 207 203 212 216 216 216 216 212 210 208 209 215 212 215 209 213 211 219 215
218 219 218 206 204 200 202 194 192 193 192 197 194 190 201 197 183 195 196 191 198 204 207 212 215 211 212 222 227 233 242 245 245 245 240 238 248 253 251 250 243 214 211
229 226 211 210 209 209 216 189 192 197 193 199 197 206 195 197 203 199 197 202 204 204 210 210 204 219 231 227 249 255 255 273 283 275 280 269 264 254 267 268 268 267 276
232 223 222 214 201 193 196 194 189 194 195 195 194 192 198 192 192 199 195 196 201 213 207 205 224 230 255 261 285 277 273 294 297 336 327 383 374 371 390 363 341 391 379

GFSSE_2pvu_pres_024.txt.gz
Presure
128 123 101 107 134 153 135 112 114 135 120 130 132 113 146 160 114 125 130 139 147 119 116 119 144 168 139 125 197 162 184 214 242 242 234 229 230 239 232 273 309 314 286
99 146 103 103 144 144 112 117 133 123 120 125 110 128 132 138 116 115 140 183 126 116 139 122 146 184 171 156 207 125 191 241 232 225 227 220 216 217 212 239 307 281 292
101 172 125 173 143 166 141 132 136 125 132 164 134 119 143 132 116 158 136 128 117 122 115 150 171 147 173 176 131 223 243 227 223 219 218 215 224 204 205 225 242 303 283
103 143 164 114 178 178 154 156 120 149 132 132 115 168 158 121 176 174 155 126 112 120 125 126 164 177 195 180 226 196 233 220 219 211 212 209 202 199 206 197 221 284 327
150 161 128 160 162 161 111 169 158 174 138 185 135 147 126 185 124 187 120 118 132 146 183 123 167 194 204 162 235 225 228 213 217 206 208 206 197 214 227 227 199 326 281
119 122 133 173 169 166 168 196 180 188 125 182 178 120 191 118 143 134 140 132 195 126 121 188 191 207 173 237 215 227 226 222 211 210 206 212 211 201 218 223 183 306 290
176 139 177 178 180 178 211 178 135 170 169 128 122 185 118 175 134 179 124 171 136 186 178 192 157 195 232 212 179 218 223 220 215 215 216 214 191 172 183 211 218 246 286
144 168 125 128 192 166 162 180 178 127 154 185 165 173 158 179 155 128 178 165 178 181 178 201 196 208 214 210 226 226 223 221 219 210 222 205 213 183 210 142 211 183 254
166 161 134 186 148 186 135 123 131 144 139 175 145 170 191 124 171 179 198 177 188 204 195 185 213 203 228 220 238 230 229 221 212 214 219 222 220 208 207 200 207 203 229
124 126 125 119 123 116 186 127 127 178 123 172 179 184 140 180 184 136 205 205 187 142 227 228 201 231 231 211 222 219 217 218 226 203 199 205 203 195 192 198 197 206 210
176 190 119 133 160 122 116 133 112 172 172 183 144 198 185 191 194 190 196 154 200 233 211 205 212 226 203 207 225 216 192 194 197 194 193 203 199 185 191 196 189 192 193
137 145 131 127 168 153 186 143 179 179 178 187 170 179 194 178 189 194 198 208 205 217 207 195 206 209 210 203 223 194 177 186 196 196 195 187 179 175 175 179 177 197 191
114 121 194 115 128 132 135 183 154 185 180 170 193 191 188 193 136 229 233 204 228 212 209 214 231 216 208 203 214 194 186 181 182 184 175 186 177 188 178 184 175 176 191
194 184 118 128 178 153 191 179 185 184 196 193 187 197 175 148 216 233 208 226 229 220 202 215 198 206 211 204 223 189 183 182 177 184 189 186 186 195 178 185 185 192 205
120 116 151 157 183 187 178 174 190 170 183 198 189 173 213 239 233 228 185 199 209 208 220 204 198 194 194 197 210 182 179 185 183 184 192 183 190 190 186 179 194 191 187
147 153 183 200 184 197 199 197 195 207 198 185 177 234 224 227 214 206 202 207 230 208 203 194 190 194 200 208 203 182 182 185 185 190 191 192 197 189 188 187 202 209 206
202 207 208 208 195 211 202 213 202 221 217 224 237 227 197 213 206 210 211 202 222 196 193 193 193 196 186 185 182 186 187 184 185 196 199 200 193 191 184 191 201 205 150
197 201 197 197 202 202 198 210 227 232 243 235 214 215 217 214 210 209 206 215 192 194 192 197 200 192 191 192 189 187 190 194 196 191 188 192 195 198 197 196 196 134 175
200 202 198 202 201 212 216 216 223 211 224 226 215 214 204 200 201 209 205 191 192 192 189 184 189 196 195 197 197 192 188 187 185 188 193 195 196 195 195 196 195 194 195
206 231 240 226 221 221 209 201 219 216 207 206 211 208 205 203 204 193 191 193 193 192 188 187 199 184 181 193 192 190 188 192 195 195 196 194 192 191 192 196 194 190 143
229 224 214 223 180 223 237 236 210 204 204 213 205 200 203 201 194 191 185 197 191 184 192 196 188 190 95 155 182 191 191 191 193 197 196 192 193 196 203 202 202 193 194
227 249 242 226 239 208 207 208 211 214 214 203 204 204 199 186 185 192 190 194 200 195 191 194 188 191 193 195 192 196 198 196 197 192 197 201 208 212 215 214 208 205 204
222 208 212 216 213 208 214 216 215 203 202 202 197 194 188 191 185 192 197 194 185 184 195 188 193 190 192 195 194 206 209 215 210 213 214 221 226 224 230 237 226 227 221
183 216 216 216 217 224 221 217 215 206 204 202 201 192 187 187 194 199 197 183 197 196 192 202 195 203 195 213 215 216 223 225 227 234 258 254 251 254 259 257 257 264 271
238 229 223 215 216 222 210 206 200 193 188 188 191 195 202 209 200 196 186 206 200 199 202 204 205 210 212 217 217 224 224 228 278 293 291 282 292 300 294 299 294 278 282
207 208 203 197 193 191 191 195 198 202 204 206 205 201 193 183 191 208 209 201 200 203 203 207 208 216 219 220 229 285 294 286 293 297 320 335 504 499 510 543 526 518 488

GFSSE_2pvu_pres_027.txt.gz
Presure
121 126 166 134 132 150 105 100 113 142 168 123 126 126 141 145 122 121 116 138 174 109 137 109 180 142 128 119 124 121 180 155 218 159 249 227 237 242 240 229 226 227 240
151 128 145 150 100 109 167 133 173 172 139 167 175 167 133 123 127 109 115 137 136 124 114 154 135 125 114 121 127 214 148 144 165 252 185 231 231 236 149 233 218 208 233
123 123 134 106 102 108 170 179 150 178 168 169 164 127 140 185 144 117 190 160 135 110 123 182 124 119 124 187 177 153 132 225 240 241 174 230 226 233 217 223 206 211 226
112 127 126 146 153 186 148 172 166 124 134 158 148 176 181 149 180 175 186 137 159 117 128 198 131 161 138 214 167 182 142 238 170 226 224 232 227 223 219 216 218 221 226
139 130 122 182 160 177 170 166 130 177 182 171 170 192 205 195 176 133 127 190 179 194 170 180 196 125 197 192 206 229 216 218 226 236 228 230 229 228 233 198 222 192 226
174 167 125 165 181 178 174 190 146 181 159 156 184 186 199 177 174 188 163 125 169 181 122 121 179 190 199 215 207 212 217 196 232 233 228 230 228 215 229 203 217 178 233
164 125 126 174 171 169 179 184 191 143 145 185 186 127 177 201 133 128 192 186 204 118 144 184 200 144 212 218 142 218 233 239 221 233 239 236 224 213 223 222 223 222 226
127 116 145 134 177 188 192 126 155 162 159 146 131 125 151 154 149 144 182 151 121 173 182 181 194 225 200 220 217 201 237 219 221 228 231 230 220 226 222 224 209 212 217
116 115 160 171 164 175 177 125 129 124 123 147 117 131 110 165 143 189 189 127 193 197 187 193 222 147 208 229 186 227 206 222 227 225 196 206 197 197 195 199 205 200 204
119 163 146 183 179 183 194 202 179 126 186 132 176 118 137 183 195 185 191 209 183 200 191 224 218 208 216 184 219 214 224 215 221 211 189 201 198 201 199 204 193 192 181
114 112 116 179 121 125 111 126 136 133 137 133 135 137 164 174 189 185 192 201 192 195 221 227 213 218 213 234 203 221 210 225 212 224 185 187 190 186 196 189 180 183 184
123 120 162 208 163 108 189 195 194 159 130 192 167 182 183 194 188 192 201 181 227 190 230 217 211 231 204 219 221 214 205 209 204 237 174 183 184 190 186 181 184 190 183
194 187 176 124 198 189 117 116 136 136 184 133 185 148 204 195 190 203 208 206 139 218 219 199 207 216 216 219 224 209 197 202 212 210 195 175 181 185 187 190 190 185 195
108 195 188 128 203 137 121 129 128 135 147 189 181 204 198 202 202 205 147 229 239 212 223 209 214 210 224 207 205 202 202 203 192 192 182 182 183 188 186 192 195 186 193
192 190 220 164 193 171 194 189 184 195 191 196 209 214 194 208 223 238 238 225 205 216 211 215 215 216 216 202 202 202 197 192 192 190 190 188 191 190 189 190 190 190 197
197 138 169 195 195 190 192 208 206 201 205 200 198 204 206 255 235 241 227 211 218 210 207 209 215 203 196 197 190 189 191 190 193 195 193 192 190 192 195 198 197 198 196
214 218 221 211 188 193 182 187 205 192 199 202 228 245 240 225 226 223 211 224 218 213 211 210 192 192 191 192 192 193 185 192 200 180 183 188 187 190 188 185 188 189 189
213 197 199 205 205 202 201 196 201 198 234 216 219 223 217 215 214 219 218 215 208 206 206 194 192 187 193 193 191 187 192 193 184 178 189 194 186 186 188 190 194 196 201
208 200 199 200 201 201 196 213 211 213 207 224 212 214 209 217 210 215 211 205 206 201 189 189 193 190 192 192 198 195 190 190 194 188 153 188 187 192 190 188 190 197 199
201 200 201 203 225 203 165 214 141 209 215 219 205 207 206 206 214 211 206 205 206 198 193 193 184 193 197 198 185 182 196 100 189 168 193 192 193 190 190 191 192 194 199
203 237 248 226 237 158 227 182 214 233 204 202 204 204 208 215 216 208 203 201 200 196 190 192 198 202 201 184 184 192 193 129 193 201 194 189 193 196 195 196 202 201 197
230 216 226 215 227 242 238 200 204 209 208 213 216 219 224 209 194 195 193 193 195 197 202 207 203 191 184 191 193 196 200 193 192 189 194 196 197 201 204 204 203 202 204
224 226 216 209 195 212 219 225 231 231 211 197 216 188 191 193 197 201 203 205 205 205 200 189 198 191 204 205 202 197 198 198 205 208 208 211 219 224 226 225 228 222 222
232 241 244 233 228 210 201 201 202 195 193 195 204 208 207 207 207 207 205 203 203 207 210 205 205 204 201 207 211 213 210 222 221 224 231 235 239 236 236 246 271 264 266
215 206 201 198 202 202 198 193 204 207 203 201 191 184 198 205 208 210 206 206 208 210 209 210 206 207 210 211 214 218 218 235 241 251 318 308 315 332 321 296 298 285 284
202 202 204 203 193 197 200 202 204 203 194 194 194 200 200 198 203 209 210 201 197 199 205 205 210 214 216 231 275 283 270 288 306 315 331 403 513 515 499 494 453 486 493

GFSSE_2pvu_pres_030.txt.gz
Presure
125 124 100 103 127 122 124 126 133 101 110 163 107 163 156 174 185 151 163 120 169 119 124 146 107 155 146 145 130 110 151 146 127 131 155 159 234 201 130 223 246 195 246
130 132 132 113 121 106 102 134 106 133 104 144 169 181 147 141 164 159 180 120 189 167 191 111 182 124 131 124 110 121 187 213 198 123 123 231 223 232 236 239 129 235 236
124 125 109 123 122 118 117 125 128 144 161 173 165 190 161 169 174 129 177 174 171 185 184 162 132 132 200 194 195 195 206 202 123 142 218 229 160 238 186 237 239 243 236
124 142 135 152 158 160 132 124 161 184 144 172 134 172 164 154 184 188 142 166 182 195 158 194 127 193 125 185 197 164 123 127 215 226 231 211 249 248 240 239 241 227 237
140 144 149 156 169 173 178 163 174 137 182 182 180 167 178 175 149 193 156 167 123 191 143 121 185 199 191 204 214 123 149 206 159 224 218 240 225 232 243 238 230 223 231
122 143 144 169 177 118 173 125 149 144 171 175 174 181 122 183 188 185 177 115 139 120 111 116 135 139 209 184 127 199 198 219 218 217 217 216 220 233 230 230 226 227 232
138 152 144 147 128 173 160 113 140 116 156 175 183 194 190 155 166 174 119 172 108 120 165 150 188 198 124 141 198 223 218 220 223 190 227 222 216 228 214 229 239 231 221
158 156 152 147 150 113 116 146 113 157 185 159 187 200 174 128 193 135 193 120 133 165 185 154 187 131 193 207 216 228 213 226 192 215 242 213 220 220 204 203 203 196 198
147 152 187 174 198 134 125 128 163 178 176 188 138 205 204 192 159 121 115 125 125 174 186 204 197 186 204 229 225 167 219 200 239 209 227 224 216 217 202 198 201 202 207
162 187 145 116 187 172 124 119 125 127 126 110 131 113 119 202 122 183 125 124 183 186 204 197 192 204 226 213 219 227 201 217 207 224 214 209 208 225 195 183 191 202 198
154 197 190 151 185 130 140 125 139 106 196 189 139 134 179 121 124 126 126 204 155 186 186 210 200 231 212 230 215 207 207 212 216 222 202 199 208 222 202 184 189 191 189
197 198 189 195 184 189 190 205 178 184 184 135 194 129 160 155 174 194 188 182 202 210 208 192 232 237 210 208 223 218 225 224 212 199 197 203 209 216 219 182 187 184 191
196 202 121 126 182 199 206 198 199 182 182 176 193 180 192 190 193 198 213 218 201 205 236 240 245 226 209 216 215 216 221 232 200 198 197 198 208 198 200 173 174 181 185
190 191 140 194 192 185 200 194 125 189 191 190 188 195 203 206 206 193 200 212 233 261 218 218 217 206 207 213 208 199 214 199 196 196 193 193 184 194 195 187 184 183 187
205 213 168 197 201 197 184 189 189 191 188 185 186 201 203 203 201 210 214 240 248 203 217 215 212 222 215 209 205 211 200 196 195 197 194 192 187 185 191 195 195 191 191
204 117 122 132 193 189 193 192 192 193 209 229 199 205 205 213 212 202 235 241 225 229 226 234 235 215 208 210 212 205 200 195 192 200 197 194 186 186 193 192 187 194 194
118 123 193 197 211 210 224 220 217 211 206 202 196 200 209 219 242 211 221 227 227 224 225 223 217 217 212 211 207 195 186 194 191 192 192 199 200 201 191 180 175 177 191
143 220 220 214 216 207 210 205 194 192 195 200 213 231 241 205 210 211 207 223 216 216 216 211 212 210 205 203 201 197 195 193 196 196 196 196 194 191 192 196 184 188 188
209 206 210 203 207 201 195 192 196 198 211 232 213 194 218 206 203 207 216 216 212 211 195 193 193 197 199 201 202 201 202 204 207 209 205 202 183 184 149 192 191 186 190
209 205 203 198 198 203 195 196 215 200 219 209 222 219 209 214 210 215 210 196 202 194 201 202 205 207 210 210 208 207 206 202 186 188 194 134 98 194 194 196 197 184 192
204 206 206 236 227 224 247 219 195 219 234 214 205 217 221 225 222 186 195 200 204 209 211 214 212 211 210 211 211 211 210 207 206 207 205 204 207 210 211 209 210 203 199
223 214 217 219 217 234 229 224 220 213 215 241 221 198 197 196 194 203 203 194 196 199 199 200 195 199 199 199 202 205 207 205 209 207 204 205 201 197 200 201 202 203 204
215 213 220 223 215 232 234 229 225 210 198 194 198 200 193 198 198 195 194 195 190 193 198 199 196 196 202 207 201 196 194 207 209 214 218 221 221 227 228 224 224 215 209
223 236 228 220 215 206 204 202 201 202 202 193 193 195 186 192 192 193 195 215 225 225 215 209 205 203 195 198 210 210 218 217 217 224 234 266 306 240 253 309 278 273 270
218 210 203 201 201 201 198 197 196 196 196 196 200 194 191 200 236 236 224 211 195 197 201 201 208 211 209 209 213 216 249 231 265 261 275 294 298 341 357 345 271 279 308
201 198 202 207 196 198 199 197 202 202 200 208 211 244 239 231 221 209 203 199 195 193 199 202 207 216 212 214 230 274 270 263 263 274 313 347 359 380 471 467 465 466 467

GFSSE_2pvu_pres_033.txt.gz
Presure
114 92 141 123 133 123 131 116 103 110 108 114 122 145 103 140 132 133 150 130 172 196 146 162 167 166 134 130 180 125 168 119 149 117 155 125 111 212 187 235 189 130 112
121 108 126 133 99 108 96 101 101 137 170 106 105 105 114 131 161 183 177 178 177 144 168 155 190 144 141 145 193 121 159 206 184 208 132 109 212 228 132 140 123 247 250
129 127 116 123 145 123 139 132 142 140 144 126 152 174 166 156 169 156 139 174 179 175 163 160 191 192 190 147 137 201 128 191 121 202 175 151 213 122 149 239 237 152 253
115 112 127 125 116 123 133 129 125 143 147 153 169 181 173 174 132 182 187 170 180 172 189 189 186 206 119 117 127 123 117 151 175 172 214 135 137 227 238 211 231 166 142
115 132 126 137 132 135 132 141 132 143 152 122 164 172 167 168 137 189 189 183 190 196 181 182 112 121 158 109 114 143 174 168 204 219 126 200 224 232 215 238 162 241 244
125 126 154 150 142 134 138 144 148 144 157 201 173 190 171 181 173 126 190 125 198 193 184 160 183 110 116 129 128 134 203 145 211 212 236 228 223 240 217 237 221 234 233
123 139 160 116 132 143 152 149 144 177 161 124 161 123 156 108 201 184 97 188 200 186 173 122 119 119 124 132 195 187 199 202 201 233 228 233 135 227 221 240 216 223 216
138 127 116 113 149 124 143 158 157 123 190 188 185 124 114 161 170 140 187 108 111 124 118 118 120 149 125 128 159 206 192 204 231 229 229 173 216 213 216 226 217 216 196
121 138 134 143 147 150 123 140 155 115 124 197 185 181 121 181 105 180 177 111 186 134 127 188 195 195 125 202 216 196 214 231 232 216 191 215 214 233 224 211 212 219 200
103 126 132 153 159 165 151 159 189 180 122 188 182 185 198 195 191 203 116 159 195 182 190 184 192 205 204 200 207 236 236 235 203 209 222 216 217 218 221 214 206 227 201
122 145 132 168 142 155 166 188 191 202 166 194 206 202 187 188 199 193 192 198 186 194 192 192 216 204 190 240 238 237 214 221 213 213 213 217 222 227 220 198 200 213 224
128 139 121 142 121 151 159 185 182 191 203 189 202 149 197 202 197 183 187 186 195 188 185 210 197 206 223 238 220 217 205 214 205 215 209 213 212 221 210 202 202 207 217
137 133 142 164 152 203 210 187 199 190 139 197 197 185 198 184 180 188 189 185 192 186 206 204 217 239 238 227 207 209 227 218 214 221 212 199 212 226 197 204 205 196 205
130 197 208 202 194 201 193 188 193 122 124 181 187 186 197 190 186 192 183 196 218 195 203 229 232 231 262 239 235 236 219 237 207 211 203 196 207 197 196 192 200 196 192
158 172 199 160 184 202 202 118 123 142 183 203 190 186 183 191 204 208 215 210 201 142 255 232 216 243 239 224 228 221 227 226 235 223 211 211 203 194 192 191 192 198 184
215 210 206 199 195 199 144 120 197 196 195 193 190 193 208 213 208 204 204 200 243 216 228 228 230 229 222 224 223 204 200 203 202 205 213 211 200 189 188 187 194 192 197
208 204 203 203 202 201 198 194 193 190 196 204 218 202 203 202 190 133 237 219 220 238 223 217 216 203 208 210 210 216 216 215 215 212 209 204 199 192 192 195 189 193 196
234 235 229 214 212 158 215 223 214 212 207 201 197 195 201 210 243 223 223 229 222 226 215 220 203 197 205 210 207 205 198 202 213 216 214 211 209 215 212 205 207 207 208
220 221 219 219 214 210 208 203 201 198 196 200 208 216 227 230 209 230 221 224 228 202 201 201 203 204 200 193 199 201 197 201 201 201 207 207 207 215 217 218 206 199 210
214 203 208 205 203 199 199 205 206 211 228 230 215 206 197 221 216 222 223 213 203 207 199 202 199 201 201 198 192 198 202 208 213 208 208 223 227 224 219 222 217 221 128
199 202 203 203 207 208 219 229 211 205 205 221 217 238 234 219 216 200 192 199 199 195 195 197 190 188 192 218 236 228 225 222 207 207 207 207 206 205 204 203 201 203 207
203 208 210 222 231 211 208 210 223 226 222 227 220 213 204 199 200 201 203 196 197 198 194 183 203 226 231 217 204 199 201 197 193 202 203 213 215 215 215 211 216 217 220
230 231 217 210 209 225 234 226 222 217 210 203 200 200 201 199 199 201 202 202 203 218 234 235 224 211 200 198 199 190 190 197 209 211 212 224 209 215 230 237 235 231 234
207 206 230 220 226 218 217 207 206 211 206 201 203 205 204 207 210 229 239 238 239 234 209 199 197 197 197 191 193 200 214 213 221 225 215 223 264 270 259 267 270 311 293
233 226 223 216 208 200 209 193 200 204 203 205 214 241 249 255 255 257 257 223 208 202 200 200 200 196 200 198 214 221 221 221 272 279 284 276 252 263 299 301 301 320 318
217 210 200 203 202 194 204 199 200 217 216 215 223 224 225 226 228 212 204 200 197 197 196 203 201 196 211 204 224 236 262 261 261 266 272 291 296 306 475 450 476 464 455

GFSSE_2pvu_pres_036.txt.gz
Presure
109 120 134 92 125 97 129 117 116 110 116 117 99 122 139 133 105 148 112 107 137 124 130 160 153 158 148 157 140 193 172 165 207 213 185 155 126 171 148 175 118 143 114
117 110 120 120 122 120 115 114 106 112 99 118 132 132 145 140 103 110 147 130 167 176 162 170 167 179 196 197 182 216 129 144 200 129 169 192 160 132 135 147 240 156 218
105 122 122 116 129 122 151 134 113 121 129 117 128 140 114 142 147 168 142 163 187 133 132 171 175 176 175 169 200 202 190 122 119 125 122 186 123 117 140 153 253 244 211
128 144 140 138 121 129 120 150 132 130 120 150 136 134 156 143 147 145 159 199 173 120 181 183 158 128 195 183 124 200 133 176 157 110 117 177 133 128 161 213 193 184 181
126 116 138 131 103 120 140 162 144 137 126 129 137 141 141 150 144 188 140 186 188 201 121 128 188 195 147 202 143 179 175 123 120 122 127 127 177 210 243 264 242 240 223
133 122 140 122 124 144 125 148 109 121 134 156 144 144 139 153 141 165 126 127 118 119 180 184 113 192 113 117 137 182 191 116 128 199 133 134 214 245 239 231 244 223 236
124 123 128 136 118 115 139 128 110 130 141 135 149 204 151 161 148 127 175 196 149 118 113 134 141 126 205 187 197 173 163 181 125 145 194 206 243 240 250 240 218 230 219
129 130 132 140 124 135 127 127 119 108 143 168 155 155 152 206 189 179 202 202 186 206 192 158 184 187 174 187 162 193 193 171 193 235 238 238 250 236 208 214 227 220 232
124 133 135 113 125 100 124 124 130 120 146 134 206 154 164 178 127 132 193 178 182 171 195 195 198 191 184 188 182 186 188 199 218 240 250 231 235 238 222 212 222 227 224
123 131 139 126 123 135 126 133 142 140 146 114 166 157 162 179 191 180 199 193 197 190 182 185 183 190 190 182 189 188 191 215 230 240 229 220 225 223 220 224 215 212 231
127 134 140 134 153 141 134 184 134 192 152 181 169 179 137 179 197 184 185 193 198 196 185 190 188 200 184 186 191 226 207 221 242 232 198 208 214 222 216 214 217 225 234
142 138 157 116 133 178 138 131 153 142 150 180 178 178 185 193 117 174 126 206 186 184 201 185 187 186 197 187 219 201 239 224 271 220 222 214 218 208 207 212 215 213 239
125 140 184 139 138 134 135 138 137 153 179 186 182 190 199 119 199 186 201 190 183 191 185 185 187 192 219 206 207 236 213 245 234 255 225 238 239 207 215 216 214 209 206
131 119 131 133 133 134 189 157 156 177 195 191 150 134 189 196 183 208 187 188 192 185 182 191 207 212 208 244 251 239 249 225 234 220 225 233 228 216 203 203 206 206 205
117 132 179 136 140 168 199 163 191 156 193 194 189 200 183 189 191 187 190 190 194 193 209 212 204 225 233 223 248 220 222 234 206 211 226 225 234 203 204 211 217 205 204
192 153 128 120 175 197 163 193 192 192 194 201 189 191 191 192 193 197 187 200 215 217 204 239 228 240 248 232 218 220 218 208 239 214 210 209 215 216 207 222 233 201 210
142 126 136 196 196 197 200 201 192 187 188 187 193 190 193 193 189 189 217 205 208 241 215 250 218 224 228 213 210 214 206 209 205 204 208 211 203 199 200 206 212 223 220
211 213 213 196 205 207 201 202 201 197 196 195 188 191 193 194 219 200 204 223 214 223 218 216 224 212 205 213 208 204 202 196 201 193 204 217 237 253 240 230 220 206 209
180 146 219 221 217 213 209 206 202 216 211 211 214 204 201 198 215 225 215 224 226 222 230 216 206 214 208 202 202 205 201 202 205 229 235 229 226 220 227 227 224 210 226
202 226 215 212 220 217 219 209 201 200 201 196 203 209 233 218 216 235 236 226 221 214 205 209 205 203 204 204 203 201 221 232 233 220 208 207 210 207 197 197 204 209 215
214 214 210 206 198 195 197 196 195 203 209 226 225 209 235 230 222 219 214 204 205 213 207 205 204 213 225 250 248 228 218 210 205 207 208 204 202 200 202 205 215 215 215
215 209 201 203 205 196 197 204 217 225 210 215 229 217 215 209 204 201 208 205 207 222 236 264 266 266 254 227 219 213 208 206 202 199 205 201 203 207 213 226 227 225 228
201 200 202 201 199 198 207 226 208 222 221 215 210 203 203 206 198 212 218 223 239 240 236 235 224 214 208 207 205 201 198 199 204 203 207 215 219 224 233 237 262 268 269
202 203 209 220 226 211 216 226 217 214 204 199 209 211 202 231 217 224 223 221 219 218 217 213 210 202 197 204 200 198 201 211 203 217 216 231 264 277 279 279 276 260 265
230 215 209 211 237 224 214 205 197 203 213 195 206 225 233 219 219 224 217 215 210 206 207 203 202 209 204 202 200 200 205 223 216 246 271 263 262 259 291 314 256 275 307
222 232 231 217 207 207 202 210 212 211 211 212 209 204 200 199 216 218 228 227 212 204 210 201 205 199 203 205 207 215 224 254 280 277 256 252 248 283 356 311 428 488 475

GFSSE_2pvu_pres_042.txt.gz
Presure
117 120 111 118 114 120 134 117 115 107 123 131 128 133 156 103 107 109 128 120 114 120 107 131 110 145 113 138 114 145 140 150 186 111 168 123 118 121 198 218 187 138 160
101 112 97 115 118 113 132 122 118 121 136 140 126 111 138 117 134 113 139 141 158 136 139 108 120 113 137 141 134 145 151 99 155 138 213 182 105 221 189 200 133 206 200
106 102 128 125 107 119 97 126 120 125 122 103 111 144 131 131 126 119 127 148 106 123 123 125 138 131 129 132 191 149 145 220 197 202 198 207 104 148 205 124 184 144 197
118 112 121 129 126 130 125 132 134 140 112 142 123 138 122 113 119 138 110 132 123 130 104 122 130 134 137 141 203 147 191 196 161 171 197 195 200 154 202 189 173 158 194
124 136 134 125 129 118 107 137 135 123 139 147 142 119 107 130 120 122 105 120 104 137 99 135 144 149 139 170 168 179 201 184 185 177 126 189 211 201 199 191 192 183 201
116 109 133 129 122 110 146 132 125 139 113 133 152 112 99 102 139 103 141 158 135 122 140 123 142 145 137 220 174 186 187 185 191 122 125 172 205 178 192 190 192 194 194
130 131 131 137 148 139 136 138 132 143 118 142 107 104 109 101 103 138 117 124 114 140 126 145 142 147 159 164 188 195 184 116 181 190 188 203 202 186 188 192 195 206 202
118 114 139 136 145 95 144 129 141 148 142 116 109 108 115 108 117 139 132 119 142 130 129 144 169 206 185 187 184 180 133 137 190 183 180 190 191 188 188 192 202 203 233
141 139 139 104 113 102 89 95 101 134 96 117 154 125 120 130 136 145 121 170 144 129 150 198 186 188 183 181 117 127 109 189 188 189 196 184 192 187 192 200 206 237 228
106 120 141 139 167 151 114 121 144 131 125 141 132 118 138 138 120 131 126 133 135 184 145 181 166 185 193 180 175 181 192 193 182 191 196 191 196 197 197 212 203 225 239
138 133 142 142 138 144 124 124 168 125 120 124 114 126 138 125 125 121 133 138 156 139 181 194 194 178 179 180 189 193 194 184 199 187 194 194 197 197 205 228 237 243 223
113 131 136 134 125 131 148 140 139 139 134 130 120 139 127 139 142 142 145 192 166 192 178 184 182 187 183 184 191 186 192 195 206 200 199 197 219 236 237 227 210 234 231
125 128 112 112 111 121 136 129 143 122 136 167 134 127 140 132 152 133 176 150 185 180 187 187 179 187 196 190 185 189 196 197 195 197 234 223 198 227 203 245 242 216 219
213 125 120 118 130 137 124 128 117 137 132 127 172 132 134 131 133 145 180 191 178 186 191 196 194 196 191 183 186 194 203 200 204 238 207 232 213 250 230 218 237 201 202
132 127 123 120 130 134 134 121 129 133 162 157 197 167 193 141 153 193 196 199 202 183 187 193 181 183 188 202 192 192 213 225 201 239 236 237 219 213 216 216 213 215 213
144 121 130 130 131 129 126 122 128 144 138 165 143 177 170 201 205 201 194 191 195 191 183 185 185 185 189 192 193 224 243 241 234 231 213 210 216 217 244 247 239 245 236
131 145 120 145 127 132 127 135 194 137 193 139 200 190 199 187 197 195 184 185 186 186 177 190 196 218 217 201 227 217 199 227 207 218 235 240 231 233 246 248 246 246 270
132 132 126 127 124 186 187 132 202 144 201 120 152 196 193 192 175 189 186 192 196 198 193 207 198 192 202 207 227 224 209 238 237 238 233 233 230 226 223 219 215 214 212
124 129 124 127 214 150 212 206 192 162 157 201 199 192 189 203 203 180 178 179 191 211 193 186 198 223 227 220 202 225 227 221 218 219 218 227 229 220 216 217 212 197 206
129 128 166 218 206 168 207 200 160 192 200 200 199 186 183 184 197 196 199 207 203 189 205 219 234 214 207 211 218 218 236 249 242 243 238 233 227 227 229 224 217 213 205
135 134 216 216 211 197 211 216 190 200 203 205 198 200 196 207 198 189 188 195 202 204 240 207 224 197 219 210 210 204 223 244 237 232 223 217 214 211 208 208 206 206 206
180 199 212 228 221 223 213 206 209 207 203 211 215 207 197 202 204 200 198 201 227 213 223 198 200 209 209 205 215 245 242 223 216 210 205 202 203 205 203 210 214 222 225
209 214 216 206 217 211 212 202 194 198 208 199 198 194 195 198 196 222 226 228 216 205 202 213 207 205 210 203 209 249 221 208 201 203 201 203 207 219 234 237 245 257 266
215 210 214 206 203 213 217 213 207 200 197 200 201 199 199 212 231 224 206 210 192 213 202 210 204 195 203 209 224 224 205 211 211 203 211 221 222 240 248 252 247 250 254
214 212 210 219 213 212 206 206 205 204 208 238 233 245 220 205 201 203 216 212 205 209 204 198 198 199 207 211 214 232 214 208 204 213 217 222 258 284 257 268 255 278 255
216 218 220 212 216 214 219 218 212 217 229 218 204 204 200 197 202 211 210 204 201 196 201 194 193 205 207 212 210 240 225 209 214 221 224 249 254 253 245 240 255 271 289

GFSSE_2pvu_pres_045.txt.gz
Presure
98 89 100 99 120 92 125 98 106 133 134 96 132 100 123 113 115 130 121 137 135 127 114 129 147 134 119 118 114 106 115 127 126 118 117 136 145 170 162 151 179 207 217
102 132 105 95 129 99 127 119 103 122 107 129 109 120 132 131 136 134 135 104 118 109 122 114 131 102 138 124 97 99 118 113 110 137 160 138 186 169 200 158 111 202 217
128 138 132 136 101 105 105 116 118 125 105 123 120 129 121 115 113 104 110 97 113 137 106 90 104 129 134 115 106 115 120 136 158 147 131 180 155 193 209 212 186 199 199
136 125 137 126 141 115 132 135 123 119 114 121 131 133 138 126 116 143 151 104 139 111 126 103 106 121 119 109 142 131 109 134 138 140 158 168 158 186 203 199 214 149 197
156 99 126 128 115 95 143 136 116 111 131 144 132 124 104 121 132 148 118 151 120 104 112 105 120 119 117 128 148 118 139 148 144 195 151 191 200 193 196 118 165 174 200
96 122 105 125 90 102 138 144 143 121 151 145 152 128 143 127 98 111 108 103 139 102 140 124 140 122 131 140 113 150 141 156 143 202 143 193 192 191 148 135 184 187 126
120 94 122 135 93 115 125 138 135 129 149 134 115 130 129 119 125 116 108 108 107 113 148 123 121 115 111 138 150 138 143 158 202 190 198 183 196 179 184 191 184 211 200
115 127 137 117 130 140 139 128 136 137 114 126 118 121 139 130 122 143 149 123 118 171 126 117 137 129 124 134 141 148 157 186 191 189 183 176 171 188 184 199 191 206 194
133 124 135 131 137 131 142 140 146 130 139 150 104 131 138 122 118 132 122 120 144 134 146 129 136 137 141 145 181 190 199 188 193 179 179 186 192 184 184 195 204 207 194
99 144 138 75 133 119 141 137 121 127 152 127 114 137 118 129 128 124 122 127 127 159 133 219 202 187 188 173 193 189 180 185 177 185 186 191 180 185 199 211 189 205 242
133 124 125 129 140 133 125 117 127 122 130 128 125 125 151 110 124 128 127 133 171 159 195 219 144 196 194 197 185 183 189 190 190 190 185 183 186 192 200 196 220 202 236
126 138 136 137 125 125 144 130 107 106 120 117 120 123 125 126 119 133 137 203 217 135 168 174 155 198 188 192 195 197 193 186 183 186 188 194 192 216 236 253 237 239 231
125 138 136 116 116 133 133 124 120 117 123 141 129 124 118 131 172 184 134 202 187 198 181 202 186 192 207 196 203 201 188 185 184 188 195 198 217 209 221 200 220 227 208
139 132 139 125 121 121 124 119 119 128 121 132 126 118 128 142 151 135 176 202 205 180 195 211 184 197 200 188 185 187 182 199 196 200 214 196 206 206 248 224 201 221 243
137 133 131 122 123 134 124 118 139 191 127 122 129 127 140 126 188 107 157 158 147 196 200 197 202 175 189 196 185 198 189 194 215 215 196 231 235 224 220 233 234 239 246
136 133 129 117 122 131 120 140 138 120 127 122 153 137 167 194 200 204 201 173 196 197 191 184 191 200 199 182 184 194 202 194 197 207 229 214 224 226 240 247 241 243 230
149 131 120 118 141 140 131 119 123 131 125 133 136 208 187 208 206 190 200 191 190 181 196 189 186 182 185 192 195 204 207 204 194 208 218 197 216 219 207 250 245 242 238
125 116 120 117 106 138 115 118 129 122 182 189 191 216 205 206 183 213 194 193 184 192 188 189 183 183 199 214 206 194 205 223 202 206 220 206 208 256 248 233 229 224 219
118 121 124 122 121 119 116 124 135 175 134 201 163 205 214 194 193 198 190 184 185 190 201 195 184 212 192 198 199 208 209 220 192 217 209 209 206 251 233 222 214 211 208
124 119 120 118 120 224 125 205 226 218 219 210 207 196 204 201 110 188 195 186 187 183 183 205 196 195 191 196 226 208 208 202 210 213 198 206 211 222 219 207 204 211 214
144 122 123 123 222 218 135 127 205 207 202 197 211 195 192 182 189 201 197 196 200 210 196 191 194 190 215 212 206 197 207 205 212 205 204 206 222 219 253 239 222 208 208
134 133 126 199 193 202 219 218 213 212 213 201 208 206 206 194 192 195 205 196 197 198 192 191 214 213 196 200 209 212 207 202 202 200 205 207 221 246 232 224 215 217 219
204 202 206 165 210 170 211 219 210 210 227 213 208 213 219 211 202 205 202 197 194 210 219 204 188 201 215 207 211 205 199 191 199 200 202 216 242 227 214 219 223 227 222
207 134 204 208 204 203 202 211 224 215 209 204 207 204 200 198 195 199 214 226 208 208 202 203 210 216 214 208 205 203 193 199 201 194 214 229 228 208 214 220 221 225 257
236 244 215 213 225 212 212 203 198 211 213 210 209 208 216 222 205 216 212 187 201 203 224 215 210 222 220 206 200 194 195 201 202 205 223 226 209 213 219 243 270 277 264
213 214 211 221 217 219 218 217 215 214 220 214 211 213 218 206 195 190 202 207 226 209 208 213 208 204 199 198 194 196 196 199 203 216 227 209 212 237 255 264 258 258 258

GFSSE_2pvu_pres_051.txt.gz
Presure
106 100 132 125 124 138 105 125 103 107 100 97 124 107 120 122 102 95 102 83 115 133 122 109 119 114 104 104 100 112 125 117 107 111 99 101 119 114 110 111 143 108 130
112 94 107 142 132 128 129 121 122 127 107 119 131 92 129 99 115 150 111 115 125 140 129 122 132 100 127 136 121 132 128 113 102 93 107 130 106 117 112 111 105 117 121
120 105 123 137 100 140 134 127 133 104 93 100 95 134 128 115 144 133 124 141 132 104 132 114 140 123 122 120 136 100 110 106 102 98 105 119 107 131 123 116 116 116 111
113 101 124 115 126 140 129 126 133 109 117 138 137 139 96 125 119 139 138 132 127 130 145 131 123 114 129 118 101 129 111 107 103 109 122 109 131 122 117 117 135 133 112
140 125 138 121 123 120 132 134 130 143 130 131 120 96 87 111 138 129 151 145 140 155 114 110 116 116 116 104 100 132 123 110 109 117 107 128 144 116 120 183 132 205 195
135 147 126 110 124 131 124 131 150 140 129 120 121 140 115 129 125 92 133 112 136 121 134 115 127 113 106 112 118 110 116 115 114 111 116 234 118 118 161 133 201 195 143
134 153 134 139 134 127 143 133 113 100 145 148 127 143 128 110 144 110 117 114 122 127 109 105 117 117 112 112 109 116 121 121 125 223 123 148 209 203 183 202 191 198 198
130 123 141 129 123 119 142 133 142 130 142 141 130 135 135 136 128 117 138 122 111 114 113 122 120 116 116 116 113 114 119 139 131 126 171 154 207 177 207 213 132 197 214
142 138 122 115 116 132 143 128 105 134 109 111 131 122 138 110 109 109 117 116 118 124 116 140 116 115 120 117 119 119 168 119 122 133 193 196 212 187 135 176 198 193 188
85 126 74 167 132 103 141 145 145 126 134 137 127 132 124 118 143 98 104 108 107 116 140 136 121 117 116 120 116 117 127 138 137 216 194 209 112 207 203 202 210 209 197
137 126 140 112 164 155 156 109 142 142 114 120 132 121 128 124 138 118 128 120 112 110 137 115 122 120 123 120 115 126 184 206 155 200 118 199 195 206 203 203 214 198 203
129 134 150 154 146 146 128 141 137 150 134 126 123 121 115 120 122 130 120 112 128 119 121 121 116 140 143 124 130 147 181 197 213 212 136 173 199 199 194 197 209 225 214
144 130 126 161 134 121 139 131 117 135 137 134 121 119 117 137 115 124 120 127 136 119 137 120 120 118 137 135 137 113 162 202 203 149 162 204 193 199 215 205 199 200 207
134 125 143 134 150 135 140 152 105 132 127 126 127 128 123 111 118 125 120 130 127 137 129 123 125 138 203 182 197 196 201 200 201 202 208 206 201 200 201 217 208 200 232
143 146 149 207 141 187 153 121 108 130 123 125 130 124 109 122 130 119 136 123 117 116 131 121 125 172 199 205 205 213 198 206 191 210 201 196 196 204 217 203 198 223 210
148 145 168 141 151 140 122 144 147 130 123 137 136 120 114 121 121 121 119 119 129 129 139 160 145 176 195 205 201 195 191 197 210 204 193 208 196 209 201 205 219 195 206
138 141 219 152 119 150 142 225 122 123 126 150 124 121 122 124 126 122 119 125 126 140 154 194 196 199 202 199 197 207 198 202 194 201 222 229 208 196 219 211 198 211 221
234 146 136 136 125 137 128 119 114 122 117 122 122 123 122 122 122 130 124 125 133 148 190 207 192 205 205 209 210 193 196 201 202 213 197 194 213 215 198 217 225 216 208
187 230 245 181 126 133 139 128 120 116 113 115 117 117 123 127 128 138 129 134 188 165 197 200 209 207 198 192 192 193 229 228 199 198 223 208 206 209 221 210 211 210 214
126 149 138 119 138 139 144 123 124 122 120 123 122 127 128 131 127 137 130 165 201 202 210 207 209 197 197 199 207 205 197 201 223 211 203 195 216 204 211 212 224 222 212
125 224 204 128 127 147 133 130 126 117 125 123 118 215 124 209 136 129 205 209 211 200 206 195 206 239 224 215 191 197 222 205 215 191 211 203 219 225 225 207 197 205 204
204 137 136 159 134 127 123 117 205 118 123 120 136 188 132 190 147 210 208 204 209 211 202 207 195 196 211 226 219 206 212 200 203 199 219 217 206 201 197 202 199 208 212
132 169 119 136 131 174 205 129 133 127 127 142 166 221 208 198 200 207 199 195 203 202 208 209 203 229 200 212 204 205 200 195 207 211 205 199 202 202 206 207 209 214 220
137 126 211 134 218 215 216 211 216 128 197 206 204 201 204 205 205 207 203 204 204 201 227 212 205 208 200 203 199 199 204 210 212 210 203 197 204 205 208 224 251 239 233
118 119 131 119 126 133 212 214 221 218 219 206 202 215 205 208 214 213 245 217 195 200 204 205 202 204 197 202 203 206 208 204 212 196 203 203 211 220 222 241 229 233 240
120 129 218 217 216 217 220 223 220 219 225 220 205 207 211 220 211 198 206 204 204 207 205 206 194 201 199 205 216 204 209 204 198 204 202 216 217 228 242 231 241 260 263